Torna al catalogo

FENGYUN 1C DEB

AttivoSSO
NORAD 30244·DEBRIS·🇨🇳 China

Lanciato May 10, 1999 da Taiyuan Satellite Launch Center

Loading…

Prossimi Passaggi (prossime 24 ore)

TLE

AggiornatoSource: Space-Track

Epoca: Sep 13, 2026, 13:00 UTC

1 30244U 99025XD  26256.54186608  .00000331  00000-0  19357-3 0  9992
2 30244  99.1157 157.6419 0008517 256.7490 226.6155 14.15351275 12301

Traccia FENGYUN 1C DEB in tempo reale con AllMySat

Download on the App Store